Espace membre
Imprimable
Challenges > Delhalle - Butgenbach, 03/05/2008, BEL - Rund um den See
Liste des rapports > Delhalle - Classement scratch
Recherche: Page: [1]
74 Entrées
 
Les réclamations ne sont plus acceptées, les résultats sont considérés comme définitifs.
RangNrNomAgeIOCLigueEquipeRéelTempsTkmMoy.ScrPtsLocalité
1.791LEFAIBLE Yvan58BELSAUC KAPUC1:25:371:25:414:04 14.7721942ALSEMBERG
2.1171HANUS Michel50BELUACDILAVILE1:26:431:26:464:07 14.5924926ROSELIES
3.1075HENRY Robert51BELDAMPHRC1:29:581:30:014:17 14.0635878HALANZY
4.714MAILIER Christian52BELCRACESM1:30:441:30:484:19 13.9438867ROUX
5.1151LANNOY Michel54BELAMAY1:31:261:31:304:21 13.8341856JEHAY
6.2027CLAAHSEN Uli53DEUSV BER1:31:351:31:404:21 13.8143853MONSCHAU
7.1088BAUWIN Dominique52BELRONVAU1:33:241:33:314:26 13.5354823DION-VALMONT
8.2031FINK Edgar55BELSCBUTG1:34:331:34:424:30 13.3760805ELSENBORN
9.146VAN NEVEL Frans54BELBEVERHOUT JOGGING CL1:36:311:36:374:35 13.1069775BRUGGE
10.521RAEYMAEKERS Ludovic54BEL1:36:571:37:024:36 13.0472768EKEREN
11.604DESSAMBRE Marcel59BELOCANJOGGPLUS1:37:151:37:224:37 13.0074763NAMECHE
12.1322LEFEBVRE Daniel53BELETCHIEVR1:37:321:37:504:39 12.9476758CHIEVRES
13.497WYNS Jos56BELHULSHEISTSE BE1:38:061:38:114:40 12.8977752HALLAAR
14.2021KAIVERS Daniel51BELSPA1:38:191:38:254:40 12.8678748THEUX
15.1392DE MASI Gianni55BEL1:38:231:38:274:41 12.8681745WANFERCEE BAULET
16.11DUBOIS Michel51BELHERV1:38:261:38:394:41 12.8382744WELKENRAEDT
17.156DUMONT J.Luc51BELACLOST BERNARD1:38:351:38:424:41 12.8284740LA LOUVIERE
18.2343BODSON Christian50BELTTF1:40:041:40:324:46 12.5993717
19.1037BEAU Christian56BELSPIBOR1:40:271:40:344:47 12.5994712JURBISE
20.2208STERCK Ronan53BEL1:40:431:40:504:47 12.5599705BALEN
21.1980VIDICK Jean-Luc55BELCACE1:40:461:40:524:47 12.55100703BRUXELLES
22.2320LEROY Leon50BEL1:44:141:44:224:57 12.13131641
23.579BELGEONNE Christian55BELJOGGPLUS1:45:031:45:275:00 12.00138627WEPION
24.2321DETREMBLEUR Serge51BEL1:45:371:45:455:01 11.97140620
25.1610VAN KOLEN Joel55BELTENDONS1:46:081:46:215:03 11.90145611LAEKEN
26.755VAN HEULENBERGHE Frank52BEL1:46:531:47:085:05 11.81149600GENT
27.209GODEFRIDI Thierry57BEL1:47:331:47:435:07 11.75154589RIXENSART
28.2298GRIGNARD Eric50BELTTF1:48:311:48:405:10 11.65163572SPA
29.2038HOFF Helmut52DEUTV KONZEN1:48:131:48:475:10 11.64165573
30.503MENAGER Thierry50BELRCB1:49:201:49:295:12 11.56174555ITTERBEEK
31.2063KUBITZKI Walter53DEU1:49:171:49:425:13 11.54177552TROOZ
32.465BOSKIN Jean-Claude53BEL1:50:121:50:315:15 11.45188534STAVELOT
33.324VANDEWALLE Marc51BEL1:51:081:51:195:17 11.37200515SCHELDEWINDEKE
34.2279DETHIER J.Henri50BELLE JOUR1:51:051:51:235:17 11.36201515WAIMES
35.1333MARIEN Rik59BELVACH1:51:161:51:465:18 11.32203511HASSELT
36.2300KEVLER X51BELOLNE1:51:161:51:465:18 11.32204510
37.33GEORGES Francois52BEL1:51:551:52:065:19 11.29208501IXELLES
38.55ROBERTI DE WINGHE Max53BEL1:52:131:52:315:21 11.25209497ARCHENNES
39.2039RODER Edgar51DEUTV HORZEN1:52:221:52:495:21 11.22213492MONSCHAU
40.255FOURNY Philippe53BEL1:52:411:52:525:22 11.21214489CHAUDFONTAINE
41.160RUYMEN Michel52BEL1:52:511:53:005:22 11.20217484SINT TRUIDEN
42.2270OBBELS Paul58BELKANAALLOPERS1:55:171:55:345:29 10.95238444
43.2312ROMBACH Klaus58DEUBSG DALLI1:55:181:55:415:30 10.94239443STOLBERG
44.1878ROMAIN Bernard51BEL1:55:271:55:475:30 10.93240441CHASTRE
45.2209DE BRUYN André59BELBVAC1:56:091:56:215:31 10.88247428WILRIJK
46.2260HUPPERTZ-THEISSEN Heinrich50DEUTV KONZEN1:56:511:57:205:34 10.79257413SIMMERATH
47.1926LEJEUNE Christian59BEL1:57:451:57:535:36 10.74260403VERVIERS
48.754LARMINIER Claude54BELSERSERUNNER1:57:541:58:015:36 10.72261400LIEGE
49.2016PREETZ Udo57DEULT MYTHOS STOLBERG1:58:291:58:405:38 10.67266391STOLBERG
50.2322CLAASSEN Klaus50BEL1:59:061:59:345:41 10.59271381
51.1153MASSART Victor55BEL1:59:301:59:535:41 10.56274375COUILLET
52.225OLIVIER Pierre50BELSERSERUNNER2:00:452:01:065:45 10.45280359HANEFFE
53.242VAN ESPEN Michel53BELACLO2:01:142:01:345:46 10.41282353HAINE SAINT PIERRE
54.820NEUVILLE Christian54BELRCSPL2:02:132:02:425:49 10.32283344LIEGE GRIVEGNEE
55.2041HAAS Achim51BEL2:02:252:02:445:50 10.31285341
56.2307VANDENDRIESCH Eddy53BELLEEUWERIK2:02:582:03:185:51 10.27286335SINT-PIETERS-LEEUW
57.2299STRAET Gerard53BEL2:03:572:04:115:54 10.19290323
58.915JOOSEN Johannes53BEL2:05:092:05:355:58 10.08294310WORTEL
59.2296WERTZ Bernard50BEL2:06:302:06:526:01 9.98301292
60.777KINET Serge50BEL2:08:202:08:466:07 9.83309271FLEMALLE-HAUTE
61.51VAN POPERING Emile55BEL2:08:182:08:496:07 9.83311269HALLE
62.2015STIEVENART Edgard57BELSPIBOR2:09:032:09:216:08 9.79313261HORNU
63.1466BANDIN Marc52BELJAMES2:10:402:11:036:13 9.66317245COURT SAINT ETIENNE
64.2220DE NARD Marc55BELNIGHT TEAM2:11:582:12:146:17 9.57325227GOE
65.2294DEMOLLIN Marc53BELLE JOUR2:13:382:13:486:21 9.46329211STEMBERT
66.2354JEANNE Christian50BEL2:14:542:15:276:26 9.34335196HANNUT
67.249PIRSON Patrice51BELJCCS2:15:562:16:266:29 9.28339184SART-CUSTINNE
68.1492CLEMENT Jacques57BELSPT WAVRE2:17:072:17:316:32 9.20344171COURT SAINT ETIENNE
69.2009STOLLENWERK Leo59DEULT MYTHOS STOLBERG2:17:442:18:106:33 9.16345166STOLBERG
70.2305MELARD Michel54BEL2:20:592:21:166:42 8.96353134OUPEYE
71.1035FERAUCHE Jean Marie59BELUACDILAVILE2:25:112:25:176:54 8.7136494FRASNES LEZ GOSSELIES
72.2040NYSSEN Siegfried52BEL2:27:232:27:507:01 8.5636974LONTZEN
73.2003KAISER Heinz55DEU2:47:112:47:437:58 7.553853EUSKIRCHEN
DNF495DISWISCOURT Jose54BELHRCHARINSART
DNF: abandon; DSQ: disqualifié; Vitesse en km/h
Page: [1]